Regional Weather Roundup
Issued by NWS

Home | Current Version | Previous Version | Graphics & Text | Print | Product List | Glossary On
Versions: 1 2 3 4 5 6 7 8 9 10 11 12 13 14 15 16 17 18 19 20 21 22 23 24 25 26 27 28 29 30 31 32 33 34 35 36 37 38 39 40 41 42 43 44 45 46 47 48 49 50
000
ASUS43 KMPX 041810
RWRMN
WEATHER ROUNDUP FOR MINNESOTA
NATIONAL WEATHER SERVICE TWIN CITIES/CHANHASSEN MN
1200 PM CST WED MAR 04 2015


NOTE: "FAIR" INDICATES FEW OR NO CLOUDS BELOW 12,000 FEET WITH NO
SIGNIFICANT WEATHER AND/OR OBSTRUCTIONS TO VISIBILITY. N/A MEANS
CURRENT SKY AND/OR WEATHER CONDITIONS ARE NOT AVAILABLE.

MNZ060>063-068>070-041900-
   Twin Cities Metro

CITY           SKY/WX    TMP DP  RH WIND       PRES   REMARKS
TWIN CITIES    PTSUNNY    8  -6  52 NW14G26   30.25R WCI  -8
6HR MIN TEMP:  -1; 6HR MAX TEMP:   9;

ST PAUL        PTSUNNY   10  -4  53 W17G23    30.27R WCI  -8
CRYSTAL        FAIR       9  -6  50 NW13      30.24R WCI  -7
BLAINE         MOSUNNY   10  -4  52 W14G20    30.22R WCI  -5
LAKEVILLE      FAIR       7  -6  56 NW17G23   30.23S WCI -12
EDEN PRAIRIE   CLOUDY     9  -5  53 NW15G26   30.24R WCI  -8
6HR MIN TEMP:  -4; 6HR MAX TEMP:  10;

SOUTH ST PAUL  FAIR      11  -4  50 W13G18    30.25R WCI  -4
LAKE ELMO      PTSUNNY   10  -4  52 W15       30.24R WCI  -6
$$
MNZ001>005-007-008-013>017-022>024-027-028-041900-
   Northwest Minnesota

CITY           SKY/WX    TMP DP  RH WIND       PRES   REMARKS
BEMIDJI        FAIR      -4 -14  63 W17       30.17R WCI -26
HALLOCK        CLOUDY    -2  -9  71 NW16G24   30.27R WCI -23
ROSEAU         FAIR      -4 -11  71 W12G18    30.20R WCI -22
WARROAD        PTSUNNY   -2 -11  65 W9        30.18R HAZE    WCI -18
THIEF RVR FALL CLOUDY    -4 -18  50 NW13      30.24R WCI -23
CROOKSTON      FAIR       0  -8  71 NW18G24   30.30R WCI -22
FOSSTON        FAIR      -2 -15  55 W14       30.23R WCI -21
DETROIT LAKES  PTSUNNY    0  -9  65 NW14G21   30.24R HAZE    WCI -19
MOORHEAD       FAIR       1  -9  60 NW15      30.31R WCI -18
PARK RAPIDS    CLOUDY     0 -15  49 NW18      30.17R WCI -21
MAHNOMEN       CLOUDY    -3 -10  70 NW15      30.24R WCI -23
$$
MNZ006-009>011-018-025>026-041900-
   North Central Minnesota

CITY           SKY/WX    TMP DP  RH WIND       PRES   REMARKS
BAUDETTE       FAIR      -4 -14  62 W15G21    30.14R WCI -25
FLAG ISLAND    FAIR      -4 -15  59 NW15      30.15R WCI -25
INTL FALLS     CLOUDY    -3 -14  59 W15G22    30.12R HAZE    WCI -23
6HR MIN TEMP: -16; 6HR MAX TEMP:  -3;

WASKISH        FAIR       0 -11  60 W12       30.16R WCI -18
BIG FORK       FAIR       1 -17  42 NW7G17    30.12R WCI -11
LONGVILLE      PTSUNNY    0 -17  46 NW16G23   30.17R WCI -21
GRAND RAPIDS   CLOUDY    -2 -15  55 NW14G23   30.11R WCI -21
CRANE LAKE     PTSUNNY   -4 -17  54 NW12G20   30.12R WCI -22
ORR            FAIR      -2 -18  46 NW10G17   30.06R WCI -19
COOK           FAIR      -2 -17  50 W14G22    30.09R HAZE    WCI -21
WALKER         MOCLDY    -3 -17  50 W14G21    30.17R WCI -22
$$
MNZ012-019>021-037-041900-
   Northeast Minnesota

CITY           SKY/WX    TMP DP  RH WIND       PRES   REMARKS
DULUTH         PTSUNNY    1 -12  54 W18G26    30.06R WCI -20
6HR MIN TEMP:  -8; 6HR MAX TEMP:   1; 6HR PCP: TRACE;

ELY            FAIR      -2 -18  46 W16G23    30.04R WCI -23
HIBBING        CLOUDY    -3 -15  56 NW23G30   30.11R WCI -27
EVELETH        FAIR       0 -15  50 NW15G26   30.09R WCI -20
DULUTH HARBOR  FAIR       3  -6  66 W17G23    30.17R WCI -17
TWO HARBORS    PTSUNNY    5 -11  47 W16G25    30.06R WCI -14
SILVER BAY     FAIR       3 -15  43 W7G18     30.05R WCI  -9
GRAND MARAIS     N/A      5 -15  39 VRB7G17   30.07R WCI  -7
G MARAIS ARPRT FAIR      -2 -20  42 NW10G22   29.91R WCI -19
$$
MNZ029>031-032-039>041-046>048-054>057-064-041900-
   West Central Minnesota

CITY           SKY/WX    TMP DP  RH WIND       PRES   REMARKS
FERGUS FALLS   FAIR       1 -13  51 NW20G25   30.31R WCI -20
WHEATON        FAIR       1 -11  55 NW17G23   30.33R WCI -19
MORRIS         FAIR       5  -6  61 NW22G28   30.27R WCI -16
ALEXANDRIA     CLOUDY     1 -11  57 NW16      30.23R WCI -19
ELBOW LAKE     CLOUDY     1 -10  59 NW21      30.26R WCI -21
WADENA         CLOUDY    -2  -9  71 NW15G21   30.20R HAZE    WCI -22
GLENWOOD       FAIR       1  -8  66 W18       30.24R WCI -19
APPLETON       FAIR       7  -6  56 NW17      30.31R WCI -12
BENSON         PTSUNNY    7  -8  51 N22       30.28R WCI -14
ORTONVILLE     FAIR       3  -9  55 NW16      30.30R WCI -16
MADISON        FAIR       9  -6  52 NW18G26   30.31R WCI -10
WILLMAR        FAIR       9  -8  47 NW22      30.27R WCI -11
$$
MNZ033>034-036-042>043-049>051-058-059-041900-
   Central Minnesota

CITY           SKY/WX    TMP DP  RH WIND       PRES   REMARKS
ST CLOUD       FAIR       5  -8  55 W21G26    30.22R WCI -16
6HR MIN TEMP:  -4; 6HR MAX TEMP:   6;

SAUK CENTRE    CLOUDY     3  -8  60 NW15      30.22R WCI -16
PAYNESVILLE    FAIR       2  -9  57 W16G25    30.24R WCI -17
AITKIN         PTSUNNY    5 -13  43 NW14      30.15R WCI -12
PINE RIVER     PTSUNNY    0 -11  60 W6G17     30.20R WCI -12
BRAINERD       PTSUNNY    1 -11  57 NW13G24   30.18R WCI -17
STAPLES        PTSUNNY    0 -13  55 NW14G22   30.19R WCI -19
LONG PRAIRIE   CLOUDY     1  -9  60 NW17G23   30.21R WCI -19
LITTLE FALLS   FAIR       5 -13  43 W14G25    30.21R HAZE    WCI -12
LITCHFIELD     FAIR       7  -9  47 NW15G21   30.25R WCI -11
BUFFALO        FAIR       8  -8  48 W15       30.26R WCI  -9
MAPLE LAKE     FAIR       9  -7  49 NW17      30.25R WCI -10
$$
MNZ037-044-045-052-053-041900-
   East Central Minnesota

CITY           SKY/WX    TMP DP  RH WIND       PRES   REMARKS
PRINCETON      FAIR       9  -8  47 W14       30.21R WCI  -8
MORA           FAIR       7 -11  43 NW14G21   30.20R HAZE    WCI -10
CAMBRIDGE      FAIR       7  -8  51 W12G21    30.20R WCI  -9
RUSH CITY      FAIR       8 -10  43 W13G21    30.21R WCI  -8
MOOSE LAKE     CLOUDY     5  -9  51 NW10G21   30.14R WCI -10
HINCKLEY       CLOUDY     7  -8  51 W13G20    30.18R WCI  -9
CLOQUET        PTSUNNY    1 -15  46 W18G26    30.10R WCI -19
MCGREGOR       CLOUDY     3 -11  51 NW16G23   30.15R WCI -16
$$
MNZ071>073-080-081-089-090-097-098-041900-
   Southwest Minnesota

CITY           SKY/WX    TMP DP  RH WIND       PRES   REMARKS
MONTEVIDEO     FAIR       9  -2  61 N17G24    30.30R WCI -10
GRANITE FALLS  PTSUNNY    9  -2  61 W17G24    30.31R WCI  -9
CANBY          PTSUNNY   10  -3  58 NW15      30.30R WCI  -7
MARSHALL       PTSUNNY    9  -6  52 N18G25    30.28R WCI -10
REDWOOD FALLS  LGT SNOW   9  -1  64 NW12G20   30.28R WCI  -6
OLIVIA         PTSUNNY    9   1  72 NW16G23   30.26R WCI  -9
PIPESTONE      PTSUNNY    9   1  72 NW14G22   30.23R HAZE    WCI  -8
WINDOM         FAIR      10   1  67 NW10      30.24R WCI  -3
WORTHINGTON    PTSUNNY   10   1  67 NW15      30.24R WCI  -6
JACKSON        FAIR      12   3  67 N7        30.22S WCI   2
TRACY          CLOUDY    11   4  73 N10       30.26R HAZE    WCI  -2
SLAYTON        LGT SNOW   9   1  69 CALM      30.23R
$$
MNZ065>067-074>077-082>085-091>093-041900-
   South Central Minnesota

CITY           SKY/WX    TMP DP  RH WIND       PRES   REMARKS
MANKATO        FAIR      10   0  61 NW14      30.26R WCI  -5
NEW ULM        FAIR       9   0  66 W13       30.27R WCI  -7
ST JAMES       FAIR      12   1  62 W9        30.27S WCI   0
FAIRMONT       CLOUDY    12   0  57 N9        30.24S WCI   0
GLENCOE        CLOUDY    10   1  66 W13G18    30.25S WCI  -5
FARIBAULT      FAIR      10   0  61 W12       30.25R WCI  -4
OWATONNA       FAIR       9  -2  61 NW15      30.24R WCI  -8
WASECA         PTSUNNY   10   0  61 W8        30.26S WCI  -1
ALBERT LEA     FAIR      10  -2  56 NW8       30.24S WCI  -1
$$
MNZ078>079-086>088-094>096-041900-
   Southeast Minnesota

CITY           SKY/WX    TMP DP  RH WIND       PRES   REMARKS
ROCHESTER      FAIR       8  -3  61 NW15      30.21R WCI  -9
6HR MIN TEMP:  -1; 6HR MAX TEMP:   8;

RED WING       FAIR      10  -8  44 W13G21    30.24S WCI  -5
STANTON        FAIR      11  -3  53 W17       30.24R WCI  -6
DODGE CENTER   FAIR       9  -2  61 NW12      30.21R WCI  -6
WINONA         FAIR      14   0  52 W8        30.26S WCI   3
AUSTIN         FAIR       9  -4  56 NW13      30.23S WCI  -7
PRESTON        FAIR       7  -4  60 W14       30.22S WCI -10
$$
ABBREVIATIONS USED IN REMARKS
   TC - TEMPERATURES IN CELSIUS
  WCI - WIND CHILL INDEX
   HX - HEAT INDEX
  VSB - VISIBILITY
$$


USA.gov is the U.S. government's official web portal to all federal, state and local government web resources and services.